Regional Weather Roundup
Issued by NWS

Home | Current Version | Previous Version | Graphics & Text | Print | Product List | Glossary On
Versions: 1 2 3 4 5 6 7 8 9 10 11 12 13 14 15 16 17 18 19 20 21 22 23 24 25 26 27 28 29 30 31 32 33 34 35 36 37 38 39 40 41 42 43 44 45 46 47 48 49 50
000
ASUS45 KPSR 130510
RWRAZ

ARIZONA HOURLY REGIONAL WEATHER ROUNDUP
NATIONAL WEATHER SERVICE PHOENIX AZ
1000 PM MST TUE DEC 12 2017

NOTE: FAIR INDICATES FEW OR NO CLOUDS BELOW 12,000 FEET WITH NO
SIGNIFICANT WEATHER AND/OR OBSTRUCTIONS TO VISIBILITY.

AZZ001>003-036-130600-
NORTHWEST ARIZONA

CITY           SKY/WX    TMP DP  RH WIND       PRES   REMARKS
BULLHEAD CITY  CLEAR     63   9  12 N7        30.11S
KINGMAN        PTCLDY    39   2  21 E8        30.20F WCI  33
$$

AZZ004>008-015-016-018-130600-
NORTH CENTRAL ARIZONA

CITY           SKY/WX    TMP DP  RH WIND       PRES   REMARKS
GRAND CANYON   MOCLDY    25   6  44 CALM      30.32S
WILLIAMS       PTCLDY    27   1  33 S12       30.28F WCI  16
PRESCOTT       PTCLDY    35   1  23 S10       30.25S WCI  27
FLAGSTAFF      PTCLDY    21  -2  36 NE3       30.32F
PAYSON         CLEAR     45  -4  13 NE3       30.25S
PAGE           MOCLDY    36  17  46 CALM      30.30F
$$

AZZ009>014-017-130600-
NORTHEAST ARIZONA

CITY           SKY/WX    TMP DP  RH WIND       PRES   REMARKS
WINSLOW        MOCLDY    23  -7  26 S3        30.32R
SAINT JOHNS    CLEAR     28  -4  25 S5        30.30F WCI  23
WINDOW ROCK    CLEAR     20  -5  33 S3        30.32F
SHOW LOW       CLEAR     30  -4  22 CALM      30.33S
$$

AZZ540-542>544-546-548-130600-
GREATER PHOENIX AREA

CITY           SKY/WX    TMP DP  RH WIND       PRES   REMARKS
PHOENIX        MOCLDY    62  11  13 E3        30.06F
BUCKEYE        PTCLDY    50   1  13 NW12      30.08S
DEER VALLEY    PTCLDY    60   4  10 E3        30.09S
SCOTTSDALE     PTCLDY    60  11  14 CALM      30.10F
MESA-GATEWAY   CLEAR     57   9  14 SE6       30.09F
$$

AZZ539-553-130600-
SOUTHWEST MARICOPA COUNTY AND PINAL COUNTY

CITY           SKY/WX    TMP DP  RH WIND       PRES   REMARKS
CASA GRANDE    NOT AVBL
GILA BEND      MOCLDY    61   3  10 NE6       30.04F
$$

AZZ503-504-507>509-130600-
SOUTHEAST ARIZONA

CITY           SKY/WX    TMP DP  RH WIND       PRES   REMARKS
TUCSON         CLEAR     61  10  13 E13       30.12F
DAVIS-MONTHAN  CLEAR     58  10  15 SE7       30.10F
NOGALES        CLEAR     52  16  24 N7        30.14F
SIERRA VISTA   CLEAR     46  17  31 SE9       30.21F
DOUGLAS        CLEAR     48  19  31 E6        30.21F
SAFFORD        CLEAR     50   7  17 E10       30.22F
$$

AZZ532-130600-
SOUTHWEST ARIZONA

CITY           SKY/WX    TMP DP  RH WIND       PRES   REMARKS
YUMA           PTCLDY    64   6  10 N9        30.05S
$$

CAZ041-043-047-048-061-525>527-560>570-130600-
SOUTHERN CALIFORNIA

CITY           SKY/WX    TMP DP  RH WIND       PRES   REMARKS
DOWNTOWN L.A.  CLEAR     58  38  47 CALM      30.03F
L.A. AIRPORT   CLEAR     61  41  47 E3        30.04S
SAN DIEGO      CLEAR     61  33  35 CALM      30.04F
BURBANK        CLEAR     58  22  24 CALM      30.05S
ONTARIO        MOCLDY    58  14  17 E3        30.06S
RIVERSIDE      CLEAR     63   5  10 E6        30.07S
PALM SPRINGS   CLEAR     59  13  16 N5        30.10S
EL CENTRO NAS  PTCLDY    53   0  11 W9        30.08F
IMPERIAL       CLEAR     56   8  14 W7        30.06F
BLYTHE         PTCLDY    56  -5   8 NW6       30.09S
NEEDLES        CLEAR     57   1  10 W6        30.11F
$$

NVZ020-UTZ003-130600-
SOUTHERN NEVADA-UTAH

CITY           SKY/WX    TMP DP  RH WIND       PRES   REMARKS
LAS VEGAS      CLEAR     50   1  13 CALM      30.18S
SALT LAKE CITY FOG       25  24  96 NE5       30.44S VSB 1/4 WCI  19
$$

NMZ009-TXZ055-130600-
NEW MEXICO-WEST TEXAS

CITY           SKY/WX    TMP DP  RH WIND       PRES   REMARKS
ALBUQUERQUE    CLOUDY    37   3  24 E5        30.29F WCI  33
EL PASO        CLEAR     43  19  38 NE5       30.27F
$$


........................KEY........................
SKY/WX - SKY CONDITION/WEATHER
TMP    - TEMPERATURE IN FAHRENHEIT
DP     - DEW POINT IN FAHRENHEIT
RH     - RELATIVE HUMIDITY IN PERCENT
WIND   - DIRECTION AND SPEED IN MILES PER HOUR (MPH)
VRB    - VARIABLE WIND DIRECTION
PRES   - MEAN SEA LEVEL PRESSURE IN INCHES OF MERCURY
         F - FALLING PRESSURE   R - RISING PRESSURE
         S - STEADY PRESSURE
VSB    - VISIBILITY IN MILES
HX     - HEAT INDEX IN FAHRENHEIT
WCI    - WIND CHILL INDEX IN FAHRENHEIT
TC     - TEMPERATURE IN CELSIUS WHICH IS ALSO KNOWN AS
         TEMPERATURE IN CENTIGRADE
AFB    - AIR FORCE BASE
         LUKE AFB IS LUKE AIR FORCE BASE
         DAVIS-MONTHAN IS DAVIS-MONTHAN AIR FORCE BASE
NAS    - NAVAL AIR STATION
         EL CENTRO NAS IS EL CENTRO NAVAL AIR STATION
N/A    - NOT AVAILABLE




USA.gov is the U.S. government's official web portal to all federal, state and local government web resources and services.